www.pogodaiklimat.ru

Погода и климат >> Архив погоды >> Иран >> Kashan


ПОГОДА в Kashan

  • Прогноз погоды в Kashan
  • Монитор погоды в Kashan
  • Климат города

АРХИВ ПОГОДЫ в Kashan

Время (UTC), дата Ветер
(напр.,м/с)
 
Видим.   Явления Облачность Т
(С)
Тd
(С)
f
(%)
Тe
(С)
Тes
(С)
Комфортность P
(гПа)
Po
(гПа)
Тmin
(С)
Tmax
(С)
R
(мм)
R24
(мм)
S
(см)
09 11.08 штиль 0 10 км ясно +37.4 +5.6 14 +35 +61 опасность
солнечного
удара
1001.4 902.6
12 11.08 В 6 10 км ясно +40.6 +6.1 12 +38 +41 очень
жарко
1000.2 900.8
15 11.08 ЮВ 3 10 км ясно +40.4 +1.9 9 +37 +37 очень
жарко
998.7 899.5 +42.2
18 11.08 З 9 10 км ясно +37.0 +1.8 11 +34 +34 очень
жарко
1000.6 901.2
21 11.08 ЮВ 6 10 км ясно +35.0 +3.7 14 +32 +32 жарко 1001.0 901.8
00 12.08 штиль 0 10 км ясно +29.2 +4.9 21 +28 +28 жарко 1001.3 902.1
03 12.08 ЮЗ 2 10 км ясно +27.8 +6.5 26 +27 +28 жарко 1002.7 903.1 +26.0
06 12.08 штиль 0 10 км ясно +34.0 +9.1 22 +33 +50 жарко 1003.3 904.2
09 12.08 СЗ 3 10 км ясно +37.6 +8.5 17 +36 +52 опасность
солнечного
удара
1001.1 902.4
12 12.08 В 6 10 км ясно +41.2 +4.0 10 +38 +42 очень
жарко
998.5 899.6
15 12.08 штиль 0 10 км ясно +40.4 +1.1 9 +37 +37 очень
жарко
997.8 898.6 +42.4
18 12.08 В 3 10 км ясно +36.2 +5.1 15 +34 +34 очень
жарко
997.6 898.8
21 12.08 ЮВ 5 10 км ясно +32.6 +8.3 22 +31 +31 жарко 996.8 898.1
00 13.08 штиль 0 10 км ясно +31.0 +9.3 26 +30 +30 жарко 995.3 897.1
03 13.08 штиль 0 10 км ясно +29.2 +9.9 30 +29 +31 жарко 997.4 898.6 +28.8
06 13.08 штиль 0 10 км ясно +36.0 +8.4 19 +34 +52 опасность
солнечного
удара
998.3 899.8
09 13.08 Ю 7 10 км ясно +41.0 +2.9 10 +37 +42 очень
жарко
996.3 898.0
12 13.08 СВ 6 10 км ясно +41.6 +1.1 8 +38 +41 очень
жарко
994.2 896.0
15 13.08 СВ 6 10 км ясно +40.2 +1.5 9 +37 +37 очень
жарко
994.0 896.4 +42.6
18 13.08 ЮВ 4 10 км ясно +35.6 -0.2 10 +32 +32 жарко 996.3 897.7
21 13.08 В 2 10 км ясно +33.8 -1.7 10 +30 +30 жарко 996.4 898.3
00 14.08 В 2 10 км ясно +27.2 -0.7 16 +25 +25 комфорт 997.1 898.0
03 14.08 штиль 0 10 км ясно +25.8 +2.8 22 +25 +26 комфорт 999.1 899.5 +24.0
06 14.08 СВ 2 10 км ясно +33.6 -0.5 11 +30 +43 жарко 999.9 900.6
09 14.08 В 7 10 км ясно +37.8 -8.3 5 +33 +39 жарко 998.3 899.5
12 14.08 В 11 10 км ясно +39.4 -9.8 4 +35 +35 очень
жарко
996.9 897.4
15 14.08 В 8 10 км ясно +37.4 -8.5 5 +33 +33 жарко 996.8 896.8 +40.0
18 14.08 штиль 0 10 км ясно +31.8 -10.1 6 +27 +27 жарко 999.5 899.5
21 14.08 штиль 0 10 км ясно +28.0 -10.1 8 +24 +24 комфорт 999.8 899.9
00 15.08 штиль 0 10 км ясно +25.4 -2.6 16 +23 +23 комфорт 999.9 899.9
03 15.08 штиль 0 10 км ясно +25.0 +3.2 24 +23 +24 комфорт 1002.5 901.8 +22.0
06 15.08 штиль 0 10 км ясно +32.6 +4.7 17 +30 +47 жарко 1001.9 901.8
09 15.08 СВ 3 10 км ясно +36.4 -0.7 10 +33 +49 жарко 1001.2 901.1
12 15.08 В 3 10 км ясно +39.4 -1.0 8 +36 +43 очень
жарко
998.9 899.0
15 15.08 В 3 10 км ясно +38.0 -3.6 7 +34 +34 очень
жарко
998.8 898.7 +40.0
18 15.08 В 4 10 км ясно +34.0 -4.2 8 +30 +30 жарко 1000.1 900.4
21 15.08 штиль 0 10 км ясно +26.8 -4.6 12 +24 +24 комфорт 1000.6 900.9
00 16.08 штиль 0 10 км ясно +23.6 -2.7 17 +22 +22 комфорт 1001.5 901.1
03 16.08 штиль 0 10 км ясно +23.0 +2.0 25 +22 +24 комфорт 1004.0 903.1 +22.8
06 16.08 штиль 0 10 км ясно +31.2 +4.3 18 +29 +46 жарко 1005.2 904.9
09 16.08 СВ 3 10 км ясно +38.0 +1.1 10 +34 +50 очень
жарко
1003.7 903.4
12 16.08 штиль 0 10 км ясно +40.2 -3.7 6 +36 +48 очень
жарко
1001.4 901.1
15 16.08 штиль 0 10 км ясно +38.6 -2.7 7 +34 +34 очень
жарко
1000.6 900.0 +41.6
18 16.08 штиль 0 10 км ясно +35.6 -0.3 10 +32 +32 жарко 1000.4 900.7
21 16.08 штиль 0 10 км ясно +30.2 +3.0 18 +28 +28 жарко 1000.5 901.2
00 17.08 штиль 0 10 км ясно +25.6 +3.1 23 +24 +24 комфорт 1001.2 901.3
03 17.08 штиль 0 10 км ясно +24.6 +4.4 27 +24 +25 комфорт 1003.0 902.5 +24.0
06 17.08 СЗ 2 10 км ясно +33.2 +1.7 14 +30 +43 жарко 1003.1 903.4
09 17.08 штиль 0 10 км ясно +39.4 -0.2 8 +36 +61 опасность
солнечного
удара
1000.7 901.4
12 17.08 ЮЗ 2 10 км ясно +43.8 -3.9 5 +40 +48 очень
жарко
997.6 898.5
15 17.08 В 2 10 км ясно +41.6 -8.2 4 +37 +37 очень
жарко
996.9 897.4 +44.4
18 17.08 СВ 4 10 км ясно +33.0 -4.2 9 +29 +29 жарко 997.8 898.2
21 17.08 штиль 0 10 км ясно +32.6 -3.3 10 +29 +29 жарко 996.1 897.5
00 18.08 штиль 0 10 км ясно +28.4 -1.9 14 +26 +26 жарко 996.0 897.5
03 18.08 штиль 0 10 км ясно +27.0 +0.4 18 +25 +26 комфорт 997.3 898.2 +26.2

 

Местоположение метеостанции Kashan (Иран): широта 33.98 долгота 51.45 высота над уровнем моря 982 м.

В архиве по умолчанию представлена погода в Kashan за последнюю неделю. Архивные данные за месяц целиком и за предыдущие месяцы, начиная с января 2011 года, Вы можете получить, выбрав интересующий диапазон дат из раскрывающегося списка и нажав кнопку "Ввод!".


*Определитесь, кто Вы:
робот инопланетянин человек

Внимание! Время в таблицах - всемирное. Для получения местного времени необходимо прибавить поправку, которая в Kashan равна 3.5 ч.

Смотрите также архив погоды в соседних городах и на ближайших метеорологических станциях:

Погода в Arak (Иран) (155 км)
Погода в Esfahan (Иран) (169 км)
Погода в Ali-Goodarz (Иран) (176 км)
Погода в Tehran (Иран) (189 км)
Погода в Shahre-Kord (Иран) (197 км)
Погода в Semnan (Иран) (248 км)
Погода в Hamedan (Иран) (285 км)
Погода в Ghazvin (Иран) (285 км)
Погода в Khorram Abad (Иран) (290 км)
Погода в Noshahr (Иран) (297 км)

Пояснения к столбцам:

Ветер - указаны скорость ветра в м/с - средняя за 10 мин, порывы в срок и между сроками (в фигурных скобках) и направление, откуда дует ветер: С - северный, СВ - северо-восточный, В - восточный, ЮВ - юго-восточный, Ю - южный, ЮЗ - юго-западный, З - западный, СЗ - северо-западный.
Видимость - горизонтальная дальность видимости в метрах или километрах. При видимости от 1 до 10 км при отсутствии осадков обычно наблюдается дымка, при ухудшении видимости до 1 км и менее - туман. В сухую погоду видимость может ухудшаться дымом, пылью или мглою.
Явления - указаны атмосферные явления, наблюдавшиеся в срок или в последний час перед сроком; фигурными скобками обозначены явления, наблюдавшиеся между сроками (за 1-3 часа до срока); квадратными скобками обозначены град или гололедные отложения с указанием их диаметра в мм.
Облачность - указаны через наклонную черту общая и нижняя облачность в баллах и высота нижней границы облаков в метрах; квадратными скобками обозначены формы облаков: Ci - перистые, Cs - перисто-слоистые, Cc - перисто-кучевые, Ac - высококучевые, As - высокослоистые, Sc - слоисто-кучевые, Ns - слоисто-дождевые, Cu - кучевые, Cb - кучево-дождевые. Подробнее классификацию облаков см. в Атласе облаков (PDF).
T - Температура воздуха - температура, измеренная на высоте 2 м над землей.
Td - Температура точки росы - температура, при понижении до которой содержащийся в воздухе водяной пар достигнет насыщения.
f - Относительная влажность воздуха - влажноcть воздуха, измеренная на высоте 2 м над землей.
Te - Эффективная температура - температура, которую ощущает одетый по сезону человек в тени. Характеристика душности погоды. При расчете учитывается влияние влажности воздуха и скорости ветра на теплоощущения человека.
Tes - Эффективная температура на солнце - температура, которую ощущает человек, с поправкой на солнечный нагрев. Характеристика знойности погоды. Зависит от высоты солнца над горизонтом, облачности и скорости ветра. Ночью, в пасмурную погоду, а также при ветре 12 м/с и более поправка равна нулю.
P - Атмосферное давление - приведенное к уровню моря атмосферное давление.
Po - Атмосферное давление - измеренное на уровне метеостанции атмосферное давление.
Tmin - Минимальная температура - минимум температуры воздуха на высоте 2 м над землей.
Tmax - Максимальная температура - максимум температуры воздуха на высоте 2 м над землей.
R - Количество осадков - Количество выпавших осадков за период времени, мм. При наведении курсора мыши на число - период времени, за который выпало указанное количество осадков.
R24 - Количество осадков - Количество выпавших осадков за 24 часа, мм.
S - Снежный покров - Высота снежного покрова, см. При наведении курсора мыши на число - состояние снежного покрова и степень покрытия местности в баллах.